Flag for Belgium Weather past 2 weeks in Bruges, Belgium

Now
63 °F

Partly sunny.


Feels Like: 63 °F
Forecast: 55 / 64 °F
Wind: 13 mph from Northwest

Location: Oostende Airport

Current Time: Aug 31, 2015 at 8:36:01 PM

Latest Report: Aug 31, 2015 at 7:50 PM


Visibility: N/A

Pressure: 29.86 "Hg

Humidity: 77%

Dew point: 55 °F

Location of BrugesLocation

Historic Weather in Bruges — Graph

°F

Bruges temperature yesterday

Maximum temperature yesterday: 72 °F (at 12:20 PM)
Minimum temperature yesterday: 61 °F (at 1:50 AM)
Average temperature yesterday: 67 °F

Past Weeks' High & Low Weather Summary

 TemperatureHumidityPressure
High82 °F (Aug 22, 1:50 PM)94% (Aug 18, 6:50 AM)30.21 "Hg (Aug 18, 6:50 AM)
Low46 °F (Aug 29, 7:20 AM)32% (Aug 22, 2:20 PM)29.39 "Hg (Aug 24, 4:50 PM)
Average63 °F71%29.94 "Hg
* Reported Aug 16 7:20 PM — Aug 31 7:20 PM, Bruges, Weather by CustomWeather, © 2015

Note: Actual official high and low records may vary slightly from our data, if they occured in-between our weather recording intervals... More about our weather records

Advertising

Bruges weather history for previous 24 hours

 ConditionsComfort  
Time TempWeatherWind HumidityBarometerVisibility
7:20 PM
Mon, Aug 31
63 °FBroken clouds.15 mph77%29.83 "HgN/A
6:50 PM64 °FPartly sunny.13 mph83%29.83 "HgN/A
6:20 PM64 °FDrizzle. Partly sunny.13 mph78%29.83 "Hg4 mi
5:50 PM64 °FBroken clouds.14 mph78%29.83 "HgN/A
5:20 PM66 °FScattered clouds.13 mph78%29.83 "Hg5 mi
4:50 PM68 °FSprinkles. Scattered clouds.3 mph73%29.80 "Hg3 mi
4:20 PM66 °FSprinkles. Scattered clouds.3 mph78%29.80 "Hg2 mi
3:50 PM68 °FFog.6 mph73%29.83 "Hg2 mi
3:20 PM68 °FRain. Passing clouds.1 mph78%29.80 "Hg2 mi
2:50 PM66 °FRain. Passing clouds.3 mph78%29.83 "Hg3 mi
2:20 PM68 °FThunderstorms. Scattered clouds.3 mph73%29.83 "Hg3 mi
1:50 PM68 °FThunderstorms. Scattered clouds.2 mph83%29.80 "Hg6 mi
1:20 PM68 °FThundershowers. Partly sunny.7 mph78%29.83 "Hg6 mi
12:50 PM70 °FThundershowers. Partly sunny.2 mph73%29.83 "HgN/A
12:20 PM70 °FPartly sunny.6 mph73%29.80 "HgN/A
11:50 AM68 °FPartly sunny.7 mph83%29.80 "Hg6 mi
11:20 AM70 °FPartly sunny.5 mph73%29.83 "Hg6 mi
10:50 AM70 °FPartly sunny.5 mph73%29.83 "HgN/A
10:20 AM70 °FPartly sunny.5 mph73%29.83 "HgN/A
9:50 AM68 °FScattered clouds.6 mph78%29.83 "HgN/A
9:20 AM68 °FPassing clouds.5 mph78%29.83 "HgN/A
8:50 AM66 °FPassing clouds.6 mph78%29.86 "HgN/A
8:20 AM66 °FSunny.3 mph83%29.86 "Hg10 mi
7:50 AM66 °FPassing clouds.5 mph78%29.86 "HgN/A
7:20 AM66 °FPassing clouds.7 mph73%29.86 "HgN/A
6:50 AM64 °FPassing clouds.5 mph83%29.86 "HgN/A
6:20 AM64 °FSprinkles. Passing clouds.3 mph78%29.89 "HgN/A
5:50 AM66 °FSprinkles. Passing clouds.3 mph78%29.89 "HgN/A
5:20 AM66 °FSprinkles. Passing clouds.1 mph73%29.89 "HgN/A
4:50 AM64 °FSprinkles. Passing clouds.7 mph78%29.89 "HgN/A
4:20 AM64 °FSprinkles. Passing clouds.5 mph83%29.89 "HgN/A
3:50 AM64 °FSprinkles. Passing clouds.3 mph83%29.92 "HgN/A
3:20 AM66 °FSprinkles. Passing clouds.6 mph73%29.92 "HgN/A
2:50 AM64 °FSprinkles. Passing clouds.5 mph78%29.95 "HgN/A
2:20 AM64 °FPassing clouds.3 mph83%29.95 "HgN/A
1:50 AM64 °FPassing clouds.5 mph78%29.92 "HgN/A
1:20 AM64 °FPassing clouds.7 mph78%29.92 "HgN/A
12:50 AM66 °FLight rain. Passing clouds.13 mph73%29.92 "Hg5 mi
12:20 AM66 °FThunderstorms. Passing clouds.10 mph78%29.95 "Hg5 mi
11:50 PM
Sun, Aug 30
66 °FThunderstorms. Passing clouds.17 mph73%30.01 "Hg3 mi
11:20 PM66 °FFog.8 mph78%29.98 "Hg3 mi
10:50 PM66 °FFog.3 mph78%29.98 "Hg3 mi
10:20 PM66 °FFog.8 mph78%29.98 "Hg3 mi
9:50 PM66 °FThunderstorms. Passing clouds.8 mph73%29.98 "Hg2 mi
9:20 PM66 °FThunderstorms. Scattered clouds.7 mph73%29.98 "Hg2 mi
8:50 PM66 °FThunderstorms. Scattered clouds.9 mph78%29.98 "Hg4 mi
8:20 PM70 °FPassing clouds.7 mph78%29.98 "Hg4 mi
Weather by CustomWeather, © 2015

See weather overviewHow to use our weather pages